When you browse on this site, cookies collect data to enhance your experience and personalize the content and advertising you see.
Visit our Privacy Policy to learn more. By continuing to use the site, you agree to this use of cookies and data.
  • In Lithuania
  • List of Countries
  • For 7 days
  • Water Temperature
  • Satellite Maps
  • Weather Map
  • Weather Widgets
  • user-avatar
    Login

    Hourly Weather Suhoy Log

    Today, 13 December, Thursday

    Time Temperature Precipitation Wind Pressure Humidity
    00:00 +3°C° 1 mm 4 mps 738 mmHg 90%
    01:00 +3°C° 0.2 mm 4 mps 738 mmHg 89%
    02:00 +1°C° 0.2 mm 4 mps 738 mmHg 88%
    03:00 +1°C° 0 mm 5 mps 738 mmHg 88%
    04:00 +1°C° 0.6 mm 5 mps 739 mmHg 88%
    05:00 0°C° 0.6 mm 5 mps 739 mmHg 87%
    06:00 0°C° 0.6 mm 5 mps 740 mmHg 87%
    07:00 0°C° 0.2 mm 5 mps 740 mmHg 88%
    08:00 0°C° 0.2 mm 5 mps 740 mmHg 88%
    09:00 0°C° 0.2 mm 5 mps 741 mmHg 88%
    10:00 0°C° 0 mm 5 mps 741 mmHg 85%
    11:00 +1°C° 0 mm 5 mps 741 mmHg 81%
    12:00 +1°C° 0 mm 5 mps 741 mmHg 78%
    13:00 +1°C° 0 mm 5 mps 742 mmHg 77%
    14:00 +2°C° 0 mm 5 mps 742 mmHg 76%
    15:00 +2°C° 0 mm 5 mps 742 mmHg 74%
    16:00 +1°C° 0 mm 4 mps 743 mmHg 77%
    17:00 +1°C° 0 mm 3 mps 743 mmHg 80%
    18:00 +1°C° 0 mm 3 mps 744 mmHg 83%
    19:00 +1°C° 0 mm 3 mps 744 mmHg 84%
    20:00 0°C° 0 mm 3 mps 744 mmHg 86%
    21:00 +1°C° 0 mm 2 mps 745 mmHg 87%
    22:00 +1°C° 0 mm 2 mps 745 mmHg 87%
    23:00 +1°C° 0 mm 2 mps 745 mmHg 88%

    Tomorrow, 14 December, Friday

    Time Temperature Precipitation Wind Pressure Humidity
    00:00 +1°C° 0 mm 2 mps 745 mmHg 88%
    01:00 -1°C° 0 mm 2 mps 745 mmHg 89%
    02:00 -1°C° 0 mm 2 mps 745 mmHg 89%
    03:00 -1°C° 0 mm 2 mps 745 mmHg 89%
    04:00 -1°C° 0 mm 2 mps 745 mmHg 89%
    05:00 -1°C° 0 mm 2 mps 746 mmHg 88%
    06:00 -1°C° 0 mm 2 mps 746 mmHg 88%
    07:00 +1°C° 0 mm 2 mps 746 mmHg 86%
    08:00 +1°C° 0 mm 2 mps 746 mmHg 85%
    09:00 +2°C° 0 mm 2 mps 746 mmHg 83%
    10:00 +2°C° 0 mm 3 mps 746 mmHg 78%
    11:00 +3°C° 0 mm 3 mps 746 mmHg 72%
    12:00 +4°C° 0 mm 4 mps 746 mmHg 66%
    13:00 +4°C° 0 mm 4 mps 746 mmHg 67%
    14:00 +4°C° 0 mm 3 mps 746 mmHg 68%
    15:00 +4°C° 0 mm 3 mps 746 mmHg 69%
    16:00 +3°C° 0 mm 3 mps 746 mmHg 74%
    17:00 +4°C° 0 mm 2 mps 746 mmHg 79%
    18:00 +3°C° 0 mm 2 mps 746 mmHg 84%
    19:00 +3°C° 0.1 mm 2 mps 746 mmHg 85%
    20:00 +3°C° 0.1 mm 2 mps 747 mmHg 86%
    21:00 +3°C° 0.1 mm 2 mps 747 mmHg 86%
    22:00 +3°C° 0 mm 2 mps 747 mmHg 86%
    23:00 +2°C° 0 mm 2 mps 747 mmHg 86%

    Day after tomorrow, 15 December, Saturday

    Time Temperature Precipitation Wind Pressure Humidity
    00:00 +2°C° 0 mm 2 mps 747 mmHg 86%
    01:00 +2°C° 0 mm 2 mps 748 mmHg 86%
    02:00 +2°C° 0 mm 2 mps 748 mmHg 85%
    03:00 +2°C° 0 mm 2 mps 748 mmHg 85%
    04:00 +1°C° 0 mm 2 mps 748 mmHg 87%
    05:00 +1°C° 0 mm 2 mps 748 mmHg 89%
    06:00 +1°C° 0 mm 2 mps 748 mmHg 92%
    07:00 +1°C° 0 mm 2 mps 749 mmHg 91%
    08:00 +1°C° 0 mm 2 mps 749 mmHg 90%
    09:00 +1°C° 0 mm 2 mps 749 mmHg 90%
    10:00 +1°C° 0 mm 3 mps 749 mmHg 83%
    11:00 +2°C° 0 mm 3 mps 749 mmHg 77%
    12:00 +3°C° 0 mm 3 mps 749 mmHg 70%
    13:00 +3°C° 0 mm 3 mps 749 mmHg 69%
    14:00 +3°C° 0 mm 3 mps 749 mmHg 67%
    15:00 +3°C° 0 mm 3 mps 749 mmHg 66%
    16:00 +3°C° 0 mm 2 mps 750 mmHg 70%
    17:00 +2°C° 0 mm 2 mps 750 mmHg 74%
    18:00 +2°C° 0 mm 1 mps 750 mmHg 79%
    19:00 +2°C° 0 mm 1 mps 750 mmHg 80%
    20:00 +2°C° 0 mm 1 mps 750 mmHg 81%
    21:00 +1°C° 0 mm 1 mps 750 mmHg 83%
    22:00 +1°C° 0 mm 1 mps 750 mmHg 84%
    23:00 +1°C° 0 mm 1 mps 750 mmHg 85%

    16 December, Sunday

    Time Temperature Precipitation Wind Pressure Humidity
    00:00 +1°C° 0 mm 1 mps 750 mmHg 86%
    01:00 0°C° 0 mm 1 mps 750 mmHg 86%
    02:00 -2°C° 0 mm 2 mps 751 mmHg 87%
    03:00 -2°C° 0 mm 2 mps 751 mmHg 88%
    04:00 -2°C° 0 mm 2 mps 751 mmHg 88%
    05:00 -2°C° 0 mm 2 mps 750 mmHg 88%
    06:00 -2°C° 0 mm 3 mps 750 mmHg 87%
    07:00 -2°C° 0 mm 3 mps 750 mmHg 86%
    08:00 -3°C° 0 mm 4 mps 750 mmHg 84%
    09:00 -3°C° 0 mm 4 mps 750 mmHg 83%
    10:00 -2°C° 0 mm 4 mps 750 mmHg 79%
    11:00 -2°C° 0 mm 5 mps 750 mmHg 75%
    12:00 -1°C° 0 mm 5 mps 749 mmHg 71%
    13:00 -1°C° 0 mm 5 mps 749 mmHg 71%
    14:00 -2°C° 0 mm 6 mps 749 mmHg 71%
    15:00 -2°C° 0 mm 6 mps 749 mmHg 71%
    16:00 -2°C° 0 mm 6 mps 749 mmHg 74%
    17:00 -3°C° 0 mm 6 mps 749 mmHg 76%
    18:00 -4°C° 0 mm 6 mps 749 mmHg 79%
    19:00 -4°C° 0 mm 6 mps 749 mmHg 80%
    20:00 -4°C° 0 mm 7 mps 749 mmHg 81%
    21:00 -6°C° 0 mm 7 mps 749 mmHg 81%
    22:00 -6°C° 0 mm 7 mps 748 mmHg 81%
    23:00 -6°C° 0 mm 7 mps 748 mmHg 81%

    17 December, Monday

    Time Temperature Precipitation Wind Pressure Humidity
    00:00 -6°C° 0 mm 7 mps 748 mmHg 81%
    01:00 -6°C° 0 mm 7 mps 748 mmHg 81%
    02:00 -6°C° 0 mm 8 mps 748 mmHg 81%
    03:00 -6°C° 0 mm 8 mps 748 mmHg 81%
    04:00 -6°C° 0 mm 8 mps 747 mmHg 80%
    05:00 -6°C° 0 mm 8 mps 747 mmHg 79%
    06:00 -6°C° 0 mm 8 mps 747 mmHg 79%
    07:00 -5°C° 0 mm 8 mps 747 mmHg 78%
    08:00 -5°C° 0 mm 8 mps 747 mmHg 78%
    09:00 -5°C° 0 mm 8 mps 747 mmHg 78%
    10:00 -4°C° 0 mm 8 mps 747 mmHg 77%
    11:00 -2°C° 0 mm 8 mps 746 mmHg 75%
    12:00 -3°C° 0 mm 9 mps 746 mmHg 74%
    13:00 -3°C° 0 mm 9 mps 746 mmHg 75%
    14:00 -2°C° 0 mm 8 mps 746 mmHg 77%
    15:00 -2°C° 0 mm 8 mps 745 mmHg 78%
    16:00 -4°C° 0 mm 8 mps 746 mmHg 79%
    17:00 -4°C° 0 mm 8 mps 746 mmHg 81%
    18:00 -4°C° 0 mm 8 mps 746 mmHg 82%
    19:00 -4°C° 0 mm 8 mps 746 mmHg 83%
    20:00 -4°C° 0 mm 9 mps 746 mmHg 83%
    21:00 -4°C° 0 mm 9 mps 746 mmHg 84%
    22:00 -4°C° 0 mm 9 mps 746 mmHg 84%
    23:00 -4°C° 0 mm 9 mps 746 mmHg 84%

    18 December, Tuesday

    Time Temperature Precipitation Wind Pressure Humidity
    00:00 -4°C° 0 mm 8 mps 746 mmHg 85%
    01:00 -4°C° 0 mm 8 mps 746 mmHg 85%
    02:00 -4°C° 0 mm 8 mps 746 mmHg 84%
    03:00 -4°C° 0 mm 8 mps 746 mmHg 84%
    04:00 -4°C° 0 mm 8 mps 746 mmHg 84%
    05:00 -4°C° 0 mm 8 mps 746 mmHg 84%
    06:00 -3°C° 0 mm 7 mps 746 mmHg 84%
    07:00 -4°C° 0 mm 8 mps 746 mmHg 84%
    08:00 -4°C° 0 mm 8 mps 746 mmHg 84%
    09:00 -4°C° 0 mm 8 mps 746 mmHg 84%
    10:00 -4°C° 0 mm 8 mps 746 mmHg 83%
    11:00 -2°C° 0 mm 8 mps 746 mmHg 82%
    12:00 -2°C° 0 mm 8 mps 746 mmHg 81%
    13:00 -2°C° 0 mm 8 mps 746 mmHg 82%
    14:00 -2°C° 0 mm 7 mps 746 mmHg 82%
    15:00 -2°C° 0 mm 7 mps 746 mmHg 83%
    16:00 -2°C° 0 mm 7 mps 746 mmHg 84%
    17:00 -2°C° 0 mm 7 mps 746 mmHg 84%
    18:00 -3°C° 0 mm 7 mps 747 mmHg 85%
    19:00 -3°C° 0 mm 7 mps 747 mmHg 85%
    20:00 -3°C° 0 mm 7 mps 747 mmHg 85%
    21:00 -2°C° 0 mm 7 mps 747 mmHg 85%
    22:00 -2°C° 0 mm 6 mps 747 mmHg 86%
    23:00 -3°C° 0 mm 6 mps 747 mmHg 86%
    Show more